| time (UTC) | temp F | wind direction | speed MPH | gust MPH | rain 1hr in | rain 24hr in | rain mn in | humidity % | barometer mb |
| 20260508203632 | 71 | 294 | 1.0 | 2.0 | 0.00 | 0.00 | 0.00 | 51 | 1004.0 |
| 20260508202631 | 71 | 279 | 1.0 | 1.0 | 0.00 | 0.00 | 0.00 | 52 | 1004.1 |
| 20260508201632 | 71 | 15 | 0.0 | 3.0 | 0.00 | 0.00 | 0.00 | 53 | 1003.3 |
| 20260508200633 | 71 | 285 | 1.0 | 2.0 | 0.00 | 0.00 | 0.00 | 53 | 1004.0 |
| 20260508195632 | 72 | 318 | 1.0 | 2.0 | 0.00 | 0.00 | 0.00 | 52 | 1003.8 |
| 20260508194631 | 72 | 311 | 0.0 | 1.0 | 0.00 | 0.00 | 0.00 | 51 | 1003.9 |
| 20260508193632 | 73 | 293 | 1.0 | 2.0 | 0.00 | 0.00 | 0.00 | 49 | 1003.9 |
| 20260508192631 | 74 | 286 | 1.0 | 2.0 | 0.00 | 0.00 | 0.00 | 49 | 1003.9 |
| 20260508191632 | 74 | 285 | 1.0 | 2.0 | 0.00 | 0.00 | 0.00 | 48 | 1004.0 |
| 20260508190633 | 74 | 281 | 1.0 | 2.0 | 0.00 | 0.00 | 0.00 | 48 | 1003.8 |
| 20260508185632 | 74 | 276 | 1.0 | 1.0 | 0.00 | 0.00 | 0.00 | 47 | 1003.5 |
| 20260508184631 | 74 | 286 | 0.0 | 1.0 | 0.00 | 0.00 | 0.00 | 47 | 1003.8 |
| 20260508183632 | 75 | 288 | 0.0 | 1.0 | 0.00 | 0.00 | 0.00 | 46 | 1003.9 |
| 20260508182632 | 76 | 290 | 1.0 | 3.0 | 0.00 | 0.00 | 0.00 | 45 | 1004.0 |
| 20260508181632 | 77 | 287 | 3.0 | 3.0 | 0.00 | 0.00 | 0.00 | 44 | 1004.1 |
| 20260508180631 | 76 | 302 | 2.0 | 3.0 | 0.00 | 0.00 | 0.00 | 46 | 1004.6 |
| 20260508175633 | 75 | 282 | 2.0 | 3.0 | 0.00 | 0.00 | 0.00 | 46 | 1004.7 |
| 20260508174632 | 75 | 295 | 3.0 | 3.0 | 0.00 | 0.00 | 0.00 | 45 | 1004.7 |
| 20260508173633 | 75 | 277 | 2.0 | 3.0 | 0.00 | 0.00 | 0.00 | 49 | 1004.7 |
| 20260508172632 | 74 | 283 | 3.0 | 5.0 | 0.00 | 0.00 | 0.00 | 47 | 1004.7 |
| 20260508171633 | 74 | 289 | 5.0 | 6.0 | 0.00 | 0.00 | 0.00 | 46 | 1004.7 |
| 20260508170631 | 75 | 288 | 2.0 | 3.0 | 0.00 | 0.00 | 0.00 | 47 | 1004.6 |
| 20260508165633 | 74 | 256 | 2.0 | 3.0 | 0.00 | 0.00 | 0.00 | 50 | 1004.6 |
| 20260508164632 | 73 | 281 | 1.0 | 2.0 | 0.00 | 0.00 | 0.00 | 50 | 1004.7 |
| 20260508163633 | 73 | 285 | 1.0 | 1.0 | 0.00 | 0.00 | 0.00 | 50 | 1004.8 |
| 20260508162632 | 73 | 285 | 2.0 | 3.0 | 0.00 | 0.00 | 0.00 | 49 | 1005.0 |
| 20260508161633 | 73 | 278 | 2.0 | 3.0 | 0.00 | 0.00 | 0.00 | 49 | 1005.2 |
| 20260508160632 | 73 | 290 | 1.0 | 2.0 | 0.00 | 0.00 | 0.00 | 51 | 1005.2 |
| 20260508155632 | 72 | 278 | 1.0 | 3.0 | 0.00 | 0.00 | 0.00 | 52 | 1005.3 |
| 20260508154631 | 71 | 276 | 2.0 | 3.0 | 0.00 | 0.00 | 0.00 | 51 | 1005.3 |
| 20260508153632 | 71 | 291 | 1.0 | 3.0 | 0.00 | 0.00 | 0.00 | 54 | 1005.6 |
| 20260508152631 | 70 | 252 | 1.0 | 2.0 | 0.00 | 0.00 | 0.00 | 56 | 1005.7 |
| 20260508151632 | 69 | 224 | 0.0 | 3.0 | 0.00 | 0.00 | 0.00 | 58 | 1005.9 |
| 20260508150633 | 69 | 228 | 1.0 | 2.0 | 0.00 | 0.00 | 0.00 | 59 | 1005.9 |
| 20260508145633 | 68 | 278 | 1.0 | 3.0 | 0.00 | 0.00 | 0.00 | 58 | 1006.4 |
| 20260508144632 | 67 | 286 | 0.0 | 2.0 | 0.00 | 0.00 | 0.00 | 60 | 1006.4 |
| 20260508143633 | 66 | 296 | 1.0 | 2.0 | 0.00 | 0.00 | 0.00 | 61 | 1006.4 |
| 20260508142633 | 66 | 282 | 1.0 | 2.0 | 0.00 | 0.00 | 0.00 | 60 | 1006.6 |
| 20260508141634 | 66 | 229 | 2.0 | 7.0 | 0.00 | 0.00 | 0.00 | 59 | 1006.6 |
| 20260508140634 | 66 | 277 | 1.0 | 2.0 | 0.00 | 0.00 | 0.00 | 61 | 1006.6 |
| 20260508135633 | 65 | 238 | 2.0 | 6.0 | 0.00 | 0.00 | 0.00 | 62 | 1006.8 |
| 20260508134634 | 64 | 273 | 1.0 | 3.0 | 0.00 | 0.00 | 0.00 | 63 | 1006.6 |
| 20260508133633 | 63 | 287 | 1.0 | 3.0 | 0.00 | 0.00 | 0.00 | 65 | 1006.5 |
| 20260508132633 | 62 | 249 | 1.0 | 2.0 | 0.00 | 0.00 | 0.00 | 66 | 1006.6 |
| 20260508131633 | 61 | 248 | 5.0 | 6.0 | 0.00 | 0.00 | 0.00 | 67 | 1006.6 |
| 20260508130634 | 59 | 242 | 0.0 | 3.0 | 0.00 | 0.00 | 0.00 | 70 | 1006.7 |
| 20260508125634 | 58 | 258 | 1.0 | 3.0 | 0.00 | 0.00 | 0.00 | 71 | 1006.5 |
| 20260508124633 | 58 | 212 | 1.0 | 9.0 | 0.00 | 0.00 | 0.00 | 71 | 1006.5 |
| 20260508123634 | 57 | 204 | 2.0 | 3.0 | 0.00 | 0.00 | 0.00 | 71 | 1006.6 |
| 20260508122634 | 56 | 186 | 1.0 | 5.0 | 0.00 | 0.00 | 0.00 | 71 | 1006.5 |
| 20260508121634 | 56 | 199 | 2.0 | 7.0 | 0.00 | 0.00 | 0.00 | 71 | 1006.5 |
| 20260508120633 | 56 | 221 | 0.0 | 2.0 | 0.00 | 0.00 | 0.00 | 71 | 1006.6 |
| 20260508115634 | 56 | 195 | 2.0 | 5.0 | 0.00 | 0.00 | 0.00 | 70 | 1006.4 |
| 20260508114633 | 56 | 207 | 1.0 | 3.0 | 0.00 | 0.00 | 0.00 | 69 | 1006.5 |
| 20260508113634 | 56 | 205 | 3.0 | 5.0 | 0.00 | 0.00 | 0.00 | 68 | 1006.5 |
| 20260508112633 | 56 | 188 | 2.0 | 3.0 | 0.00 | 0.00 | 0.00 | 67 | 1006.5 |
| 20260508111634 | 55 | 189 | 2.0 | 2.0 | 0.00 | 0.00 | 0.00 | 67 | 1006.6 |
| 20260508110633 | 55 | 188 | 1.0 | 3.0 | 0.00 | 0.00 | 0.00 | 67 | 1006.6 |
| 20260508105634 | 55 | 111 | 1.0 | 1.0 | 0.00 | 0.00 | 0.00 | 66 | 1006.5 |
| 20260508104633 | 56 | 205 | 0.0 | 2.0 | 0.00 | 0.00 | 0.00 | 66 | 1006.5 |
| 20260508103634 | 56 | 212 | 0.0 | 2.0 | 0.00 | 0.00 | 0.00 | 65 | 1006.5 |
| 20260508102633 | 56 | 184 | 1.0 | 2.0 | 0.00 | 0.00 | 0.00 | 65 | 1006.4 |
| 20260508101634 | 56 | 211 | 1.0 | 3.0 | 0.00 | 0.00 | 0.00 | 64 | 1006.4 |
| 20260508100632 | 56 | 177 | 0.0 | 2.0 | 0.00 | 0.00 | 0.00 | 63 | 1006.4 |
| 20260508095634 | 57 | 219 | 0.0 | 1.0 | 0.00 | 0.00 | 0.00 | 62 | 1006.4 |
| 20260508094633 | 57 | 265 | 0.0 | 1.0 | 0.00 | 0.00 | 0.00 | 62 | 1006.3 |
| 20260508093634 | 57 | 196 | 1.0 | 3.0 | 0.00 | 0.00 | 0.00 | 61 | 1006.2 |
| 20260508092633 | 57 | 238 | 1.0 | 2.0 | 0.00 | 0.00 | 0.00 | 61 | 1006.3 |
| 20260508091634 | 57 | 243 | 0.0 | 2.0 | 0.00 | 0.00 | 0.00 | 60 | 1006.1 |
| 20260508090633 | 57 | 197 | 1.0 | 5.0 | 0.00 | 0.00 | 0.00 | 59 | 1006.1 |
| 20260508085632 | 57 | 199 | 1.0 | 3.0 | 0.00 | 0.00 | 0.00 | 58 | 1006.3 |
| 20260508084633 | 58 | 197 | 1.0 | 3.0 | 0.00 | 0.00 | 0.00 | 58 | 1006.4 |
| 20260508083633 | 58 | 200 | 0.0 | 3.0 | 0.00 | 0.00 | 0.00 | 57 | 1006.4 |
| 20260508082632 | 58 | 219 | 1.0 | 3.0 | 0.00 | 0.00 | 0.00 | 57 | 1006.4 |
| 20260508081633 | 59 | 198 | 0.0 | 2.0 | 0.00 | 0.00 | 0.00 | 56 | 1006.5 |
| 20260508080634 | 59 | 203 | 1.0 | 3.0 | 0.00 | 0.00 | 0.00 | 55 | 1006.5 |
| 20260508075633 | 60 | 202 | 1.0 | 1.0 | 0.00 | 0.00 | 0.00 | 54 | 1006.5 |
| 20260508074633 | 60 | 213 | 1.0 | 6.0 | 0.00 | 0.00 | 0.00 | 54 | 1006.5 |
| 20260508073633 | 60 | 262 | 1.0 | 2.0 | 0.00 | 0.00 | 0.00 | 52 | 1006.7 |
| 20260508072632 | 61 | 287 | 1.0 | 2.0 | 0.00 | 0.00 | 0.00 | 52 | 1006.8 |
| 20260508071633 | 61 | 226 | 0.0 | 2.0 | 0.00 | 0.00 | 0.00 | 51 | 1006.6 |
| 20260508070632 | 61 | 248 | 1.0 | 1.0 | 0.00 | 0.00 | 0.00 | 51 | 1006.6 |
| 20260508065634 | 61 | 237 | 1.0 | 3.0 | 0.00 | 0.00 | 0.00 | 50 | 1006.7 |
| 20260508064633 | 61 | 181 | 2.0 | 3.0 | 0.00 | 0.00 | 0.00 | 50 | 1006.8 |
| 20260508063633 | 61 | 213 | 3.0 | 5.0 | 0.00 | 0.00 | 0.00 | 49 | 1006.8 |
| 20260508062632 | 62 | 202 | 2.0 | 3.0 | 0.00 | 0.00 | 0.00 | 49 | 1007.0 |
| 20260508061633 | 62 | 186 | 1.0 | 3.0 | 0.00 | 0.00 | 0.00 | 49 | 1007.0 |
| 20260508060634 | 62 | 191 | 5.0 | 14.0 | 0.00 | 0.00 | 0.00 | 49 | 1007.1 |
| 20260508055633 | 62 | 188 | 3.0 | 5.0 | 0.00 | 0.00 | 0.00 | 48 | 1007.2 |
| 20260508054634 | 62 | 198 | 3.0 | 3.0 | 0.00 | 0.00 | 0.00 | 49 | 1007.2 |
| 20260508053633 | 61 | 197 | 2.0 | 3.0 | 0.00 | 0.00 | 0.00 | 49 | 1007.3 |
| 20260508052632 | 61 | 207 | 2.0 | 3.0 | 0.00 | 0.00 | 0.00 | 49 | 1007.3 |
| 20260508051633 | 62 | 185 | 2.0 | 3.0 | 0.00 | 0.00 | 0.00 | 48 | 1007.3 |
| 20260508050633 | 62 | 195 | 2.0 | 3.0 | 0.00 | 0.00 | 0.00 | 48 | 1007.3 |
| 20260508045632 | 62 | 190 | 3.0 | 5.0 | 0.00 | 0.00 | 0.00 | 48 | 1007.4 |
| 20260508044633 | 62 | 191 | 3.0 | 6.0 | 0.00 | 0.00 | 0.00 | 46 | 1007.4 |
| 20260508043632 | 63 | 185 | 3.0 | 6.0 | 0.00 | 0.00 | 0.00 | 45 | 1007.5 |
| 20260508042634 | 63 | 180 | 2.0 | 3.0 | 0.00 | 0.00 | 0.00 | 45 | 1007.7 |
| 20260508041633 | 63 | 198 | 3.0 | 3.0 | 0.00 | 0.00 | 0.00 | 44 | 1007.8 |
| 20260508040634 | 64 | 185 | 3.0 | 6.0 | 0.00 | 0.00 | 0.00 | 43 | 1007.7 |
| 20260508035633 | 64 | 188 | 5.0 | 7.0 | 0.00 | 0.00 | 0.00 | 43 | 1007.9 |
| 20260508034634 | 64 | 192 | 3.0 | 6.0 | 0.00 | 0.00 | 0.00 | 42 | 1007.9 |
| 20260508033633 | 65 | 185 | 5.0 | 7.0 | 0.00 | 0.00 | 0.00 | 42 | 1007.8 |
| 20260508032634 | 65 | 184 | 5.0 | 7.0 | 0.00 | 0.00 | 0.00 | 41 | 1007.8 |
| 20260508031633 | 65 | 192 | 3.0 | 6.0 | 0.00 | 0.00 | 0.00 | 41 | 1007.8 |
| 20260508030634 | 66 | 185 | 5.0 | 7.0 | 0.00 | 0.00 | 0.00 | 40 | 1007.8 |
| 20260508025633 | 66 | 180 | 5.0 | 6.0 | 0.00 | 0.00 | 0.00 | 39 | 1007.8 |
| 20260508024633 | 67 | 184 | 3.0 | 6.0 | 0.00 | 0.00 | 0.00 | 38 | 1007.6 |
| 20260508023632 | 67 | 181 | 3.0 | 7.0 | 0.00 | 0.00 | 0.00 | 37 | 1007.5 |
| 20260508022633 | 68 | 189 | 2.0 | 3.0 | 0.00 | 0.00 | 0.00 | 36 | 1007.4 |
| 20260508021634 | 68 | 185 | 3.0 | 9.0 | 0.00 | 0.00 | 0.00 | 35 | 1007.3 |
| 20260508020633 | 69 | 185 | 5.0 | 9.0 | 0.00 | 0.00 | 0.00 | 34 | 1007.3 |
| 20260508015634 | 70 | 191 | 3.0 | 9.0 | 0.00 | 0.00 | 0.00 | 33 | 1007.1 |
| 20260508014632 | 70 | 210 | 2.0 | 3.0 | 0.00 | 0.00 | 0.00 | 32 | 1006.9 |
| 20260508013633 | 71 | 186 | 3.0 | 5.0 | 0.00 | 0.00 | 0.00 | 32 | 1006.9 |
| 20260508012633 | 71 | 203 | 2.0 | 3.0 | 0.00 | 0.00 | 0.00 | 32 | 1006.7 |
| 20260508011633 | 72 | 213 | 1.0 | 2.0 | 0.00 | 0.00 | 0.00 | 32 | 1006.6 |
| 20260508010632 | 73 | 192 | 2.0 | 3.0 | 0.00 | 0.00 | 0.00 | 30 | 1006.5 |
| 20260508005633 | 74 | 226 | 3.0 | 3.0 | 0.00 | 0.00 | 0.00 | 30 | 1006.7 |
| 20260508004632 | 75 | 193 | 1.0 | 3.0 | 0.00 | 0.00 | 0.00 | 29 | 1006.5 |
| 20260508003633 | 76 | 191 | 2.0 | 5.0 | 0.00 | 0.00 | 0.00 | 28 | 1006.5 |
| 20260508002633 | 76 | 205 | 5.0 | 6.0 | 0.00 | 0.00 | 0.00 | 27 | 1006.7 |
| 20260508001632 | 77 | 194 | 3.0 | 7.0 | 0.00 | 0.00 | 0.00 | 28 | 1006.6 |
| 20260508000633 | 77 | 189 | 3.0 | 7.0 | 0.00 | 0.00 | 0.00 | 27 | 1006.6 |
| 20260507235632 | 76 | 199 | 3.0 | 9.0 | 0.00 | 0.00 | 0.00 | 29 | 1006.9 |
| 20260507234632 | 76 | 237 | 2.0 | 7.0 | 0.00 | 0.00 | 0.00 | 28 | 1007.0 |
| 20260507233633 | 76 | 282 | 1.0 | 2.0 | 0.00 | 0.00 | 0.00 | 28 | 1006.9 |
| 20260507232632 | 76 | 207 | 1.0 | 3.0 | 0.00 | 0.00 | 0.00 | 29 | 1007.0 |
| 20260507231633 | 76 | 232 | 3.0 | 3.0 | 0.00 | 0.00 | 0.00 | 28 | 1007.0 |
| 20260507230632 | 76 | 219 | 2.0 | 3.0 | 0.00 | 0.00 | 0.00 | 30 | 1007.2 |
| 20260507225633 | 76 | 275 | 1.0 | 5.0 | 0.00 | 0.00 | 0.00 | 29 | 1007.2 |
| 20260507224632 | 76 | 274 | 1.0 | 3.0 | 0.00 | 0.00 | 0.00 | 29 | 1007.4 |
| 20260507223633 | 76 | 245 | 1.0 | 3.0 | 0.00 | 0.00 | 0.00 | 30 | 1007.5 |
| 20260507222632 | 76 | 302 | 2.0 | 2.0 | 0.00 | 0.00 | 0.00 | 29 | 1007.5 |
| 20260507221631 | 76 | 284 | 1.0 | 3.0 | 0.00 | 0.00 | 0.00 | 31 | 1007.6 |
| 20260507220632 | 76 | 266 | 1.0 | 3.0 | 0.00 | 0.00 | 0.00 | 29 | 1007.8 |
| 20260507215633 | 75 | 282 | 2.0 | 2.0 | 0.00 | 0.00 | 0.00 | 31 | 1008.0 |
| 20260507214631 | 75 | 269 | 1.0 | 3.0 | 0.00 | 0.00 | 0.00 | 31 | 1008.0 |
| 20260507213632 | 75 | 284 | 0.0 | 1.0 | 0.00 | 0.00 | 0.00 | 32 | 1008.0 |
| 20260507212632 | 75 | 278 | 2.0 | 3.0 | 0.00 | 0.00 | 0.00 | 31 | 1008.3 |
| 20260507211633 | 74 | 280 | 0.0 | 3.0 | 0.00 | 0.00 | 0.00 | 32 | 1008.5 |
| 20260507210632 | 74 | 288 | 2.0 | 3.0 | 0.00 | 0.00 | 0.00 | 31 | 1008.7 |
| 20260507210103 | 74 | 248 | 1.0 | 3.0 | 0.00 | 0.00 | 0.00 | 33 | 1008.5 |
| 20260507205104 | 74 | 284 | 2.0 | 3.0 | 0.00 | 0.00 | 0.00 | 32 | 1008.9 |